TimeEST,TemperatureF,Dew PointF,Humidity,Sea Level PressureIn,VisibilityMPH,Wind Direction,Wind SpeedMPH,Gust SpeedMPH,PrecipitationIn,Events,Conditions,WindDirDegrees,DateUTC
12:53 AM,57.9,55.0,90,29.99,9.0,NW,5.8,-,N/A,,Clear,310,2012-11-21 05:53:00
1:53 AM,57.9,55.9,93,29.98,10.0,NW,5.8,-,N/A,,Clear,320,2012-11-21 06:53:00
2:53 AM,57.0,55.0,93,29.97,10.0,NW,5.8,-,N/A,,Clear,310,2012-11-21 07:53:00
3:53 AM,57.0,55.0,93,29.96,10.0,NW,6.9,-,N/A,,Clear,320,2012-11-21 08:53:00
4:53 AM,57.0,55.0,93,29.97,10.0,NW,5.8,-,N/A,,Clear,310,2012-11-21 09:53:00
5:53 AM,57.0,55.0,93,29.98,10.0,NW,6.9,-,N/A,,Clear,310,2012-11-21 10:53:00
6:53 AM,57.0,55.0,93,30.00,10.0,NW,8.1,-,N/A,,Clear,320,2012-11-21 11:53:00
7:53 AM,60.1,55.9,86,30.01,10.0,NW,9.2,-,N/A,,Clear,320,2012-11-21 12:53:00
8:53 AM,64.9,57.9,78,30.02,10.0,NW,8.1,-,N/A,,Clear,320,2012-11-21 13:53:00
9:53 AM,69.1,57.9,68,30.03,10.0,NW,12.7,20.7,N/A,,Clear,320,2012-11-21 14:53:00
10:53 AM,71.1,57.0,61,30.02,10.0,NNW,15.0,23.0,N/A,,Clear,330,2012-11-21 15:53:00
11:53 AM,72.0,55.9,57,30.01,10.0,North,12.7,19.6,N/A,,Partly Cloudy,350,2012-11-21 16:53:00
12:53 PM,73.0,55.0,53,29.99,10.0,North,10.4,18.4,N/A,,Scattered Clouds,360,2012-11-21 17:53:00
1:53 PM,71.1,54.0,55,29.97,10.0,North,12.7,21.9,0.00,,Mostly Cloudy,360,2012-11-21 18:53:00
2:53 PM,71.1,55.0,57,29.97,10.0,North,15.0,19.6,N/A,,Clear,10,2012-11-21 19:53:00
3:53 PM,68.0,54.0,61,29.97,10.0,North,8.1,-,N/A,,Clear,350,2012-11-21 20:53:00
4:53 PM,66.9,53.1,61,29.99,10.0,North,9.2,19.6,N/A,,Partly Cloudy,350,2012-11-21 21:53:00
5:53 PM,64.0,53.1,67,30.00,10.0,North,6.9,-,N/A,,Clear,350,2012-11-21 22:53:00
6:53 PM,62.1,52.0,70,30.01,10.0,NNW,6.9,-,N/A,,Clear,340,2012-11-21 23:53:00
7:53 PM,61.0,53.1,75,30.03,10.0,NNW,5.8,-,N/A,,Clear,340,2012-11-22 00:53:00
8:53 PM,61.0,53.1,75,30.04,10.0,NNW,8.1,-,N/A,,Clear,330,2012-11-22 01:53:00
9:53 PM,59.0,53.1,81,30.04,10.0,NW,6.9,-,N/A,,Clear,320,2012-11-22 02:53:00
10:53 PM,59.0,51.1,75,30.05,10.0,NW,6.9,-,N/A,,Clear,310,2012-11-22 03:53:00
11:53 PM,57.0,48.9,74,30.04,10.0,NW,8.1,-,N/A,,Clear,320,2012-11-22 04:53:00